User: anonymous   Login
Location: Unspecified
(0.0000°N, 0.0000°E)
Time: 09:20:43
(UTC+00:00)
Language:

STRAND 1 - Orbit

View from above orbital plane
View from above orbital plane
View from above satellite
View from above satellite

Ground track
Ground track

The orbit data is extracted from the following two-line orbital elements,

1 39090U 13009E   17086.78871419 +.00000078 +00000-0 +42731-4 0  9997
2 39090 098.5618 292.9548 0009226 174.6323 185.4963 14.34955041213800
Epoch (UTC): 27 March 2017 18:55:44
Eccentricity: 0.0009226
inclination: 98.5618°
perigee height: 768 km
apogee height: 782 km
right ascension of ascending node: 292.9548°
argument of perigee: 174.6323°
revolutions per day: 14.34955041
mean anomaly at epoch: 185.4963°
orbit number at epoch: 21380

The dashed part of the orbit path shows where the satellite is in the earth's shadow,  

DLR